TimeCDT,TemperatureF,Dew PointF,Humidity,Sea Level PressureIn,VisibilityMPH,Wind Direction,Wind SpeedMPH,Gust SpeedMPH,PrecipitationIn,Events,Conditions,WindDirDegrees,DateUTC
12:53 AM,50.0,41.0,71,30.17,10.0,NE,15.0,-,N/A,,Clear,40,2012-10-06 05:53:00
1:53 AM,48.9,35.1,59,30.18,10.0,NE,15.0,-,N/A,,Clear,40,2012-10-06 06:53:00
2:53 AM,50.0,30.0,46,30.19,10.0,NE,23.0,28.8,N/A,,Overcast,50,2012-10-06 07:53:00
3:53 AM,48.9,33.1,54,30.19,10.0,NE,19.6,25.3,N/A,,Overcast,50,2012-10-06 08:53:00
4:53 AM,48.9,34.0,56,30.21,10.0,ENE,21.9,27.6,N/A,,Overcast,60,2012-10-06 09:53:00
5:53 AM,48.0,34.0,58,30.20,10.0,NE,19.6,-,N/A,,Overcast,50,2012-10-06 10:53:00
6:53 AM,48.0,35.1,61,30.21,10.0,NE,13.8,-,N/A,,Overcast,50,2012-10-06 11:53:00
7:53 AM,46.9,34.0,61,30.22,10.0,NE,15.0,-,N/A,,Overcast,40,2012-10-06 12:53:00
9:53 AM,48.9,34.0,56,30.23,10.0,NE,16.1,-,N/A,,Overcast,40,2012-10-06 14:53:00
10:53 AM,50.0,32.0,50,30.24,10.0,NNE,17.3,-,N/A,,Overcast,30,2012-10-06 15:53:00
11:53 AM,50.0,28.9,44,30.23,10.0,NE,15.0,-,N/A,,Overcast,50,2012-10-06 16:53:00
12:53 PM,51.1,28.0,41,30.22,10.0,NE,18.4,23.0,N/A,,Overcast,50,2012-10-06 17:53:00
1:53 PM,51.1,27.0,39,30.20,10.0,NE,18.4,-,N/A,,Overcast,40,2012-10-06 18:53:00
2:53 PM,51.1,27.0,39,30.19,10.0,NNE,17.3,-,N/A,,Overcast,30,2012-10-06 19:53:00
3:53 PM,50.0,28.0,43,30.19,10.0,NE,16.1,-,N/A,,Overcast,40,2012-10-06 20:53:00
4:53 PM,50.0,28.0,43,30.19,10.0,NE,18.4,-,N/A,,Overcast,40,2012-10-06 21:53:00
5:53 PM,50.0,28.0,43,30.20,10.0,NE,15.0,-,N/A,,Overcast,50,2012-10-06 22:53:00
6:53 PM,48.9,27.0,43,30.22,10.0,NE,17.3,-,N/A,,Overcast,50,2012-10-06 23:53:00
7:53 PM,48.9,28.0,44,30.25,10.0,NE,17.3,-,N/A,,Overcast,50,2012-10-07 00:53:00
8:53 PM,48.0,28.9,48,30.27,10.0,NE,16.1,-,N/A,,Overcast,50,2012-10-07 01:53:00
9:53 PM,48.0,28.9,48,30.29,10.0,NE,13.8,-,N/A,,Overcast,40,2012-10-07 02:53:00
10:53 PM,48.0,30.9,52,30.30,10.0,NE,9.2,-,N/A,,Overcast,40,2012-10-07 03:53:00
11:53 PM,48.0,30.9,52,30.31,10.0,NNE,11.5,-,N/A,,Overcast,30,2012-10-07 04:53:00